Artesia, NM

10:43 PM MST on December 10, 2019 (GMT -0700)
Artesia Municipal

Weather History for KATS - October, 2019

Change the Weather History Date:

Saturday, October 19, 2019

  Actual Average Record
Temperature  
Mean Temperature 58 °F -  
Max Temperature 71 °F 76 °F 88 °F (1969)
Min Temperature 46 °F 39 °F 23 °F (1989)
Degree Days  
Heating Degree Days 6    
Growing Degree Days 8 (Base 50)    
Moisture  
Dew Point 38 °F    
Average Humidity 45    
Maximum Humidity 71    
Minimum Humidity 25    
Precipitation  
Precipitation 0.00 in - - ()
Sea Level Pressure  
Sea Level Pressure 29.94 in    
Wind  
Wind Speed 10 mph (WNW)    
Max Wind Speed 15 mph    
Max Gust Speed 18 mph    
Visibility 10 miles    
Events      
Averages and records for this station are not official NWS values.
T = Trace of Precipitation, MM = Missing Value Source: NWS Daily Summary

Daily Weather History Graph

Daily Weather History Graph

Search for Another Location

Airport or City:

Astronomy

Oct. 19, 2019 Rise Set
Actual Time 7:04 AM MDT 6:20 PM MDT
Civil Twilight 6:39 AM MDT 6:45 PM MDT
Nautical Twilight 6:11 AM MDT 7:13 PM MDT
Astronomical Twilight 5:42 AM MDT 7:42 PM MDT
Moon 10:44 PM MDT (10/19) 12:26 PM MDT (10/19)
Length of Visible Light 12h 05m
Length of Day
11h 15m
Waning Gibbous, 69% of the Moon is Illuminated
Oct 19
Waning Gibbous
Oct 21
Last Quarter
Oct 27
New
Nov 4
First Quarter
Nov 12
Full

Hourly Weather History & Observations

Time (MDT) Temp. Windchill Dew Point Humidity Pressure Visibility Wind Dir Wind Speed Gust Speed Precip Events Conditions
12:15 AM 60.8 °F - 42.8 °F 52% 29.86 in 10.0 mi West 15.0 mph - N/A   Clear
12:35 AM 60.8 °F - 42.8 °F 52% 29.86 in 10.0 mi West 13.8 mph - N/A   Clear
12:55 AM 59.0 °F - 41.0 °F 51% 29.86 in 10.0 mi West 13.8 mph - N/A   Clear
1:15 AM 59.0 °F - 41.0 °F 51% 29.87 in 10.0 mi West 10.4 mph 17.3 mph N/A   Clear
1:35 AM 57.2 °F - 41.0 °F 55% 29.87 in 10.0 mi West 11.5 mph - N/A   Clear
1:55 AM 57.2 °F - 41.0 °F 55% 29.89 in 10.0 mi West 9.2 mph - N/A   Clear
2:15 AM 55.4 °F - 41.0 °F 58% 29.89 in 10.0 mi West 11.5 mph - N/A   Clear
2:35 AM 55.4 °F - 41.0 °F 58% 29.90 in 10.0 mi WNW 9.2 mph - N/A   Clear
2:55 AM 53.6 °F - 41.0 °F 62% 29.91 in 10.0 mi NNW 9.2 mph - N/A   Clear
3:15 AM 53.6 °F - 41.0 °F 62% 29.91 in 10.0 mi WNW 10.4 mph - N/A   Clear
3:35 AM 51.8 °F - 41.0 °F 67% 29.92 in 10.0 mi WNW 6.9 mph - N/A   Clear
3:55 AM 51.8 °F - 41.0 °F 67% 29.92 in 10.0 mi NW 6.9 mph - N/A   Clear
4:15 AM 51.8 °F - 41.0 °F 67% 29.92 in 10.0 mi WNW 6.9 mph - N/A   Clear
4:35 AM 53.6 °F - 39.2 °F 58% 29.93 in 10.0 mi NNE 6.9 mph 16.1 mph N/A   Clear
4:55 AM 51.8 °F - 39.2 °F 62% 29.93 in 10.0 mi North 8.1 mph - N/A   Clear
5:15 AM 51.8 °F - 39.2 °F 62% 29.94 in 10.0 mi NW 6.9 mph - N/A   Clear
5:35 AM 51.8 °F - 39.2 °F 62% 29.96 in 10.0 mi NNE 10.4 mph 18.4 mph N/A   Clear
5:55 AM 48.2 °F - 39.2 °F 71% 29.96 in 10.0 mi North 8.1 mph - N/A   Clear
6:15 AM 48.2 °F - 39.2 °F 71% 29.97 in 10.0 mi North 6.9 mph - N/A   Clear
6:35 AM 46.4 °F 42.9 °F 37.4 °F 71% 29.98 in 10.0 mi NNW 6.9 mph - N/A   Clear
6:55 AM 48.2 °F - 35.6 °F 62% 29.99 in 10.0 mi NNW 12.7 mph - N/A   Clear
7:15 AM 50.0 °F - 33.8 °F 54% 29.99 in 10.0 mi NNW 10.4 mph - N/A   Clear
7:35 AM 50.0 °F - 32.0 °F 50% 30.00 in 10.0 mi NNW 11.5 mph - N/A   Clear
7:55 AM 51.8 °F - 30.2 °F 44% 30.01 in 10.0 mi NNW 13.8 mph - N/A   Clear
8:15 AM 53.6 °F - 30.2 °F 41% 30.02 in 10.0 mi NNW 11.5 mph 17.3 mph N/A   Clear
8:55 AM 55.4 °F - 33.8 °F 44% 30.04 in 10.0 mi North 15.0 mph - N/A   Clear
9:15 AM 57.2 °F - 35.6 °F 44% 30.05 in 10.0 mi North 13.8 mph - N/A   Clear
9:35 AM 59.0 °F - 35.6 °F 42% 30.05 in 10.0 mi North 15.0 mph - N/A   Clear
9:55 AM 60.8 °F - 35.6 °F 39% 30.06 in 10.0 mi North 13.8 mph - N/A   Clear
10:15 AM 60.8 °F - 37.4 °F 42% 30.06 in 10.0 mi North 11.5 mph - N/A   Clear
10:35 AM 62.6 °F - 39.2 °F 42% 30.06 in 10.0 mi North 9.2 mph - N/A   Clear
10:55 AM 62.6 °F - 39.2 °F 42% 30.05 in 10.0 mi NNE 8.1 mph 15.0 mph N/A   Clear
11:15 AM 62.6 °F - 37.4 °F 39% 30.05 in 10.0 mi Variable 3.5 mph 12.7 mph N/A   Clear
11:35 AM 64.4 °F - 39.2 °F 40% 30.05 in 10.0 mi NNE 5.8 mph - N/A   Clear
11:55 AM 64.4 °F - 39.2 °F 40% 30.04 in 10.0 mi NNE 4.6 mph - N/A   Clear
12:15 PM 64.4 °F - 39.2 °F 40% 30.03 in 10.0 mi Calm Calm - N/A   Clear
12:35 PM 66.2 °F - 39.2 °F 37% 30.01 in 10.0 mi NNE 8.1 mph - N/A   Clear
12:55 PM 66.2 °F - 39.2 °F 37% 30.00 in 10.0 mi NNW 5.8 mph - N/A   Clear
1:15 PM 66.2 °F - 39.2 °F 37% 29.99 in 10.0 mi Calm Calm - N/A   Clear
1:35 PM 68.0 °F - 37.4 °F 33% 29.98 in 10.0 mi Variable 3.5 mph - N/A   Clear
1:55 PM 68.0 °F - 37.4 °F 33% 29.97 in 10.0 mi Calm Calm - N/A   Clear
2:15 PM 68.0 °F - 37.4 °F 33% 29.96 in 10.0 mi SE 4.6 mph - N/A   Clear
2:35 PM 69.8 °F - 37.4 °F 31% 29.95 in 10.0 mi Calm Calm - N/A   Clear
2:55 PM 69.8 °F - 37.4 °F 31% 29.94 in 10.0 mi South 5.8 mph - N/A   Clear
3:15 PM 69.8 °F - 37.4 °F 31% 29.93 in 10.0 mi SSE 4.6 mph - N/A   Clear
3:35 PM 69.8 °F - 37.4 °F 31% 29.92 in 9.0 mi Variable 3.5 mph - N/A   Clear
3:55 PM 69.8 °F - 35.6 °F 28% 29.92 in 10.0 mi SE 5.8 mph - N/A   Clear
4:15 PM 71.6 °F - 35.6 °F 27% 29.91 in 10.0 mi SE 4.6 mph - N/A   Clear
4:35 PM 71.6 °F - 35.6 °F 27% 29.90 in 10.0 mi SE 6.9 mph - N/A   Clear
4:55 PM 71.6 °F - 37.4 °F 29% 29.90 in 10.0 mi SE 5.8 mph - N/A   Clear
5:15 PM 71.6 °F - 33.8 °F 25% 29.90 in 10.0 mi SSE 9.2 mph - N/A   Clear
5:35 PM 71.6 °F - 33.8 °F 25% 29.89 in 10.0 mi SSE 10.4 mph - N/A   Clear
5:55 PM 69.8 °F - 35.6 °F 28% 29.89 in 10.0 mi SE 10.4 mph - N/A   Clear
6:15 PM 68.0 °F - 37.4 °F 33% 29.89 in 10.0 mi SE 8.1 mph - N/A   Clear
6:35 PM 64.4 °F - 39.2 °F 40% 29.89 in 10.0 mi SSE 5.8 mph - N/A   Clear
6:55 PM 64.4 °F - 37.4 °F 37% 29.89 in 10.0 mi SSE 5.8 mph - N/A   Clear
7:15 PM 60.8 °F - 37.4 °F 42% 29.89 in 10.0 mi SSE 6.9 mph - N/A   Clear
7:35 PM 60.8 °F - 37.4 °F 42% 29.89 in 10.0 mi SSE 8.1 mph - N/A   Clear
7:55 PM 60.8 °F - 35.6 °F 39% 29.90 in 10.0 mi South 10.4 mph - N/A   Clear
8:15 PM 59.0 °F - 37.4 °F 45% 29.90 in 10.0 mi South 10.4 mph - N/A   Clear
8:35 PM 59.0 °F - 37.4 °F 45% 29.90 in 10.0 mi SW 11.5 mph - N/A   Clear
9:15 PM 60.8 °F - 37.4 °F 42% 29.89 in 10.0 mi SSW 12.7 mph - N/A   Clear
9:35 PM 59.0 °F - 37.4 °F 45% 29.89 in 10.0 mi SSW 9.2 mph - N/A   Clear
9:55 PM 59.0 °F - 37.4 °F 45% 29.89 in 10.0 mi SSW 10.4 mph - N/A   Clear
10:15 PM 59.0 °F - 37.4 °F 45% 29.89 in 10.0 mi SSW 10.4 mph - N/A   Clear
10:35 PM 57.2 °F - 35.6 °F 44% 29.89 in 10.0 mi SSW 12.7 mph - N/A   Clear
10:55 PM 57.2 °F - 35.6 °F 44% 29.89 in 10.0 mi SSW 10.4 mph - N/A   Clear
11:15 PM 57.2 °F - 35.6 °F 44% 29.88 in 10.0 mi SSW 11.5 mph - N/A   Clear
11:35 PM 57.2 °F - 35.6 °F 44% 29.87 in 10.0 mi SSW 11.5 mph - N/A   Clear
11:55 PM 55.4 °F - 35.6 °F 47% 29.86 in 10.0 mi SW 9.2 mph - N/A   Clear